| time (UTC) | temp F | wind direction | speed MPH | gust MPH | rain 1hr in | rain 24hr in | rain mn in | humidity % | barometer mb |
| 20260906225144 | 72 | 213 | 5.0 | 16.0 | 0.00 | 0.00 | 0.00 | 57 | 1014.1 |
| 20260906224144 | 73 | 242 | 3.0 | 16.0 | 0.00 | 0.00 | 0.00 | 57 | 1014.2 |
| 20260906223123 | 73 | 302 | 4.0 | 19.0 | 0.00 | 0.00 | 0.00 | 57 | 1014.3 |
| 20260906222123 | 73 | 284 | 2.0 | 6.0 | 0.00 | 0.00 | 0.00 | 58 | 1014.3 |
| 20260906221125 | 73 | 256 | 3.0 | 13.0 | 0.00 | 0.00 | 0.00 | 60 | 1014.4 |
| 20260906220123 | 72 | 240 | 3.0 | 13.0 | 0.00 | 0.00 | 0.00 | 59 | 1014.4 |
| 20260906215123 | 72 | 299 | 3.0 | 13.0 | 0.00 | 0.00 | 0.00 | 61 | 1014.3 |
| 20260906214123 | 73 | 320 | 2.0 | 13.0 | 0.00 | 0.00 | 0.00 | 62 | 1014.5 |
| 20260906213124 | 73 | 331 | 4.0 | 14.0 | 0.00 | 0.00 | 0.00 | 64 | 1014.6 |
| 20260906212123 | 72 | 352 | 6.0 | 16.0 | 0.00 | 0.00 | 0.00 | 65 | 1014.7 |
| 20260906211124 | 72 | 324 | 4.0 | 14.0 | 0.00 | 0.00 | 0.00 | 67 | 1014.7 |
| 20260906210123 | 72 | 328 | 4.0 | 16.0 | 0.00 | 0.00 | 0.00 | 65 | 1014.8 |
| 20260906205123 | 71 | 310 | 5.0 | 18.0 | 0.00 | 0.00 | 0.00 | 65 | 1014.9 |
| 20260906204144 | 71 | 335 | 5.0 | 16.0 | 0.00 | 0.00 | 0.00 | 68 | 1015.1 |
| 20260906203123 | 71 | 355 | 8.0 | 19.0 | 0.00 | 0.00 | 0.00 | 66 | 1015.2 |
| 20260906202123 | 71 | 355 | 6.0 | 18.0 | 0.00 | 0.00 | 0.00 | 67 | 1015.3 |
| 20260906201123 | 70 | 320 | 4.0 | 13.0 | 0.00 | 0.00 | 0.00 | 68 | 1015.4 |
| 20260906200123 | 71 | 343 | 6.0 | 16.0 | 0.00 | 0.00 | 0.00 | 65 | 1015.4 |
| 20260906195124 | 71 | 340 | 5.0 | 14.0 | 0.00 | 0.00 | 0.00 | 66 | 1015.5 |
| 20260906194144 | 69 | 314 | 3.0 | 14.0 | 0.00 | 0.00 | 0.00 | 68 | 1015.7 |
| 20260906193125 | 69 | 325 | 3.0 | 14.0 | 0.00 | 0.00 | 0.00 | 71 | 1015.7 |
| 20260906192123 | 69 | 334 | 5.0 | 19.0 | 0.00 | 0.00 | 0.00 | 68 | 1015.8 |
| 20260906191123 | 68 | 318 | 5.0 | 16.0 | 0.00 | 0.00 | 0.00 | 64 | 1015.8 |
| 20260906190123 | 68 | 331 | 4.0 | 18.0 | 0.00 | 0.00 | 0.00 | 64 | 1016.0 |
| 20260906185144 | 68 | 348 | 4.0 | 16.0 | 0.00 | 0.00 | 0.00 | 63 | 1016.1 |
| 20260906184123 | 68 | 347 | 5.0 | 14.0 | 0.00 | 0.00 | 0.00 | 63 | 1016.3 |
| 20260906183123 | 66 | 313 | 5.0 | 19.0 | 0.00 | 0.00 | 0.00 | 65 | 1016.3 |
| 20260906182123 | 66 | 307 | 3.0 | 14.0 | 0.00 | 0.00 | 0.00 | 67 | 1016.4 |
| 20260906181123 | 66 | 311 | 3.0 | 19.0 | 0.00 | 0.00 | 0.00 | 67 | 1016.5 |
| 20260906180126 | 65 | 310 | 4.0 | 16.0 | 0.00 | 0.00 | 0.00 | 69 | 1016.6 |
| 20260906175123 | 65 | 330 | 3.0 | 14.0 | 0.00 | 0.00 | 0.00 | 70 | 1016.5 |
| 20260906174123 | 64 | 316 | 6.0 | 18.0 | 0.00 | 0.00 | 0.00 | 70 | 1016.6 |
| 20260906173123 | 64 | 319 | 5.0 | 21.0 | 0.00 | 0.00 | 0.00 | 70 | 1016.7 |
| 20260906172144 | 65 | 309 | 7.0 | 23.0 | 0.00 | 0.00 | 0.00 | 67 | 1016.8 |
| 20260906171123 | 64 | 314 | 3.0 | 16.0 | 0.00 | 0.00 | 0.00 | 68 | 1016.9 |
| 20260906170123 | 63 | 228 | 0.0 | 6.0 | 0.00 | 0.00 | 0.00 | 69 | 1016.9 |
| 20260906165144 | 63 | 242 | 1.0 | 6.0 | 0.00 | 0.00 | 0.00 | 69 | 1017.0 |
| 20260906164124 | 63 | 72 | 1.0 | 5.0 | 0.00 | 0.00 | 0.00 | 69 | 1017.2 |
| 20260906163123 | 62 | 84 | 1.0 | 3.0 | 0.00 | 0.00 | 0.00 | 71 | 1017.2 |
| 20260906162123 | 62 | 79 | 1.0 | 3.0 | 0.00 | 0.00 | 0.00 | 72 | 1017.1 |
| 20260906161144 | 62 | 35 | 0.0 | 3.0 | 0.00 | 0.00 | 0.00 | 72 | 1017.2 |
| 20260906160124 | 60 | 110 | 2.0 | 5.0 | 0.00 | 0.00 | 0.00 | 75 | 1017.2 |
| 20260906155123 | 59 | 107 | 3.0 | 10.0 | 0.00 | 0.00 | 0.00 | 77 | 1017.2 |
| 20260906154123 | 59 | 89 | 1.0 | 5.0 | 0.00 | 0.00 | 0.00 | 79 | 1017.2 |
| 20260906153123 | 58 | 89 | 2.0 | 5.0 | 0.00 | 0.00 | 0.00 | 80 | 1017.3 |
| 20260906152123 | 58 | 99 | 2.0 | 5.0 | 0.00 | 0.00 | 0.00 | 81 | 1017.3 |
| 20260906151144 | 57 | 93 | 1.0 | 5.0 | 0.00 | 0.00 | 0.00 | 83 | 1017.3 |
| 20260906150123 | 56 | 122 | 0.0 | 0.0 | 0.00 | 0.00 | 0.00 | 86 | 1017.3 |
| 20260906145123 | 55 | 121 | 0.0 | 0.0 | 0.00 | 0.00 | 0.00 | 88 | 1017.2 |
| 20260906144123 | 54 | 154 | 0.0 | 0.0 | 0.00 | 0.00 | 0.00 | 90 | 1017.2 |
| 20260906143123 | 53 | 152 | 0.0 | 0.0 | 0.00 | 0.00 | 0.00 | 91 | 1017.2 |
| 20260906142144 | 53 | 154 | 0.0 | 0.0 | 0.00 | 0.00 | 0.00 | 91 | 1017.1 |
| 20260906141123 | 52 | 153 | 0.0 | 0.0 | 0.00 | 0.00 | 0.00 | 92 | 1017.0 |
| 20260906140123 | 52 | 154 | 0.0 | 0.0 | 0.00 | 0.00 | 0.00 | 91 | 1017.0 |
| 20260906135124 | 52 | 154 | 0.0 | 0.0 | 0.00 | 0.00 | 0.00 | 91 | 1017.0 |
| 20260906134123 | 52 | 154 | 0.0 | 0.0 | 0.00 | 0.00 | 0.00 | 91 | 1016.9 |
| 20260906133123 | 52 | 156 | 0.0 | 0.0 | 0.00 | 0.00 | 0.00 | 91 | 1016.9 |
| 20260906132123 | 52 | 156 | 0.0 | 0.0 | 0.00 | 0.00 | 0.00 | 91 | 1016.8 |
| 20260906131123 | 52 | 156 | 0.0 | 0.0 | 0.00 | 0.00 | 0.00 | 91 | 1016.8 |
| 20260906130123 | 52 | 154 | 0.0 | 0.0 | 0.00 | 0.00 | 0.00 | 90 | 1016.9 |
| 20260906125123 | 52 | 155 | 0.0 | 0.0 | 0.00 | 0.00 | 0.00 | 90 | 1016.9 |
| 20260906124123 | 53 | 156 | 0.0 | 0.0 | 0.00 | 0.00 | 0.00 | 90 | 1016.9 |
| 20260906123123 | 53 | 154 | 0.0 | 0.0 | 0.00 | 0.00 | 0.00 | 90 | 1017.0 |
| 20260906122123 | 53 | 154 | 0.0 | 0.0 | 0.00 | 0.00 | 0.00 | 90 | 1017.0 |
| 20260906121123 | 53 | 156 | 0.0 | 0.0 | 0.00 | 0.00 | 0.00 | 90 | 1017.0 |
| 20260906120123 | 53 | 156 | 0.0 | 0.0 | 0.00 | 0.00 | 0.00 | 91 | 1017.0 |
| 20260906115123 | 53 | 155 | 0.0 | 0.0 | 0.00 | 0.00 | 0.00 | 91 | 1016.9 |
| 20260906114144 | 53 | 155 | 0.0 | 0.0 | 0.00 | 0.00 | 0.00 | 91 | 1016.8 |
| 20260906113123 | 53 | 156 | 0.0 | 0.0 | 0.00 | 0.00 | 0.00 | 90 | 1016.7 |
| 20260906112145 | 53 | 154 | 0.0 | 0.0 | 0.00 | 0.00 | 0.00 | 91 | 1016.7 |
| 20260906111123 | 53 | 156 | 0.0 | 0.0 | 0.00 | 0.00 | 0.00 | 90 | 1016.8 |
| 20260906110144 | 53 | 156 | 0.0 | 0.0 | 0.00 | 0.00 | 0.00 | 90 | 1016.8 |
| 20260906105144 | 54 | 155 | 0.0 | 0.0 | 0.00 | 0.00 | 0.00 | 90 | 1016.8 |
| 20260906104123 | 54 | 154 | 0.0 | 0.0 | 0.00 | 0.00 | 0.00 | 90 | 1016.8 |
| 20260906103144 | 54 | 156 | 0.0 | 0.0 | 0.00 | 0.00 | 0.00 | 90 | 1016.9 |
| 20260906102144 | 54 | 155 | 0.0 | 0.0 | 0.00 | 0.00 | 0.00 | 90 | 1016.9 |
| 20260906101123 | 54 | 156 | 0.0 | 0.0 | 0.00 | 0.00 | 0.00 | 89 | 1017.0 |
| 20260906100144 | 55 | 156 | 0.0 | 0.0 | 0.00 | 0.00 | 0.00 | 89 | 1017.0 |
| 20260906095123 | 55 | 156 | 0.0 | 0.0 | 0.00 | 0.00 | 0.00 | 88 | 1017.1 |
| 20260906094123 | 55 | 156 | 0.0 | 0.0 | 0.00 | 0.00 | 0.00 | 88 | 1017.1 |
| 20260906093123 | 55 | 156 | 0.0 | 0.0 | 0.00 | 0.00 | 0.00 | 87 | 1017.1 |
| 20260906092123 | 55 | 155 | 0.0 | 0.0 | 0.00 | 0.00 | 0.00 | 87 | 1017.1 |
| 20260906091124 | 56 | 154 | 0.0 | 0.0 | 0.00 | 0.00 | 0.00 | 86 | 1017.3 |
| 20260906090145 | 56 | 156 | 0.0 | 0.0 | 0.00 | 0.00 | 0.00 | 86 | 1017.4 |
| 20260906085123 | 56 | 155 | 0.0 | 0.0 | 0.00 | 0.00 | 0.00 | 86 | 1017.3 |
| 20260906084123 | 56 | 154 | 0.0 | 0.0 | 0.00 | 0.00 | 0.00 | 85 | 1017.4 |
| 20260906083123 | 57 | 156 | 0.0 | 0.0 | 0.00 | 0.00 | 0.00 | 84 | 1017.5 |
| 20260906082123 | 57 | 155 | 0.0 | 0.0 | 0.00 | 0.00 | 0.00 | 83 | 1017.5 |
| 20260906081144 | 57 | 155 | 0.0 | 0.0 | 0.00 | 0.00 | 0.00 | 82 | 1017.4 |
| 20260906080123 | 58 | 155 | 0.0 | 0.0 | 0.00 | 0.00 | 0.00 | 82 | 1017.5 |
| 20260906075144 | 59 | 88 | 0.0 | 0.0 | 0.00 | 0.00 | 0.00 | 80 | 1017.4 |
| 20260906074123 | 59 | 88 | 0.0 | 3.0 | 0.00 | 0.00 | 0.00 | 80 | 1017.3 |
| 20260906073144 | 59 | 84 | 1.0 | 6.0 | 0.00 | 0.00 | 0.00 | 79 | 1017.4 |
| 20260906072144 | 59 | 75 | 0.0 | 0.0 | 0.00 | 0.00 | 0.00 | 80 | 1017.3 |
| 20260906071123 | 59 | 75 | 0.0 | 0.0 | 0.00 | 0.00 | 0.00 | 79 | 1017.4 |
| 20260906070123 | 59 | 71 | 0.0 | 6.0 | 0.00 | 0.00 | 0.00 | 80 | 1017.4 |
| 20260906065123 | 59 | 96 | 1.0 | 5.0 | 0.00 | 0.00 | 0.00 | 81 | 1017.5 |
| 20260906064144 | 58 | 93 | 2.0 | 5.0 | 0.00 | 0.00 | 0.00 | 82 | 1017.5 |
| 20260906063123 | 58 | 92 | 0.0 | 0.0 | 0.00 | 0.00 | 0.00 | 82 | 1017.3 |
| 20260906062123 | 59 | 93 | 0.0 | 0.0 | 0.00 | 0.00 | 0.00 | 82 | 1017.4 |
| 20260906061123 | 59 | 93 | 1.0 | 3.0 | 0.00 | 0.00 | 0.00 | 81 | 1017.3 |
| 20260906060123 | 59 | 90 | 0.0 | 0.0 | 0.00 | 0.00 | 0.00 | 81 | 1017.4 |
| 20260906055122 | 59 | 92 | 0.0 | 2.0 | 0.00 | 0.00 | 0.00 | 81 | 1017.4 |
| 20260906054123 | 60 | 93 | 0.0 | 3.0 | 0.00 | 0.00 | 0.00 | 80 | 1017.3 |
| 20260906053123 | 61 | 83 | 1.0 | 5.0 | 0.00 | 0.00 | 0.00 | 79 | 1017.4 |
| 20260906052122 | 60 | 99 | 2.0 | 5.0 | 0.00 | 0.00 | 0.00 | 81 | 1017.4 |
| 20260906051144 | 60 | 100 | 0.0 | 3.0 | 0.00 | 0.00 | 0.00 | 82 | 1017.4 |
| 20260906050123 | 61 | 103 | 1.0 | 5.0 | 0.00 | 0.00 | 0.00 | 82 | 1017.5 |
| 20260906045123 | 61 | 72 | 0.0 | 3.0 | 0.00 | 0.00 | 0.00 | 81 | 1017.5 |
| 20260906044123 | 61 | 354 | 0.0 | 2.0 | 0.00 | 0.00 | 0.00 | 81 | 1017.5 |
| 20260906043144 | 61 | 356 | 0.0 | 3.0 | 0.00 | 0.00 | 0.00 | 83 | 1017.6 |
| 20260906042123 | 60 | 300 | 0.0 | 0.0 | 0.00 | 0.00 | 0.00 | 83 | 1017.6 |
| 20260906041123 | 61 | 299 | 0.0 | 0.0 | 0.00 | 0.00 | 0.00 | 82 | 1017.6 |
| 20260906040123 | 61 | 311 | 0.0 | 3.0 | 0.00 | 0.00 | 0.00 | 81 | 1017.6 |
| 20260906035144 | 61 | 313 | 1.0 | 3.0 | 0.00 | 0.00 | 0.00 | 81 | 1017.5 |
| 20260906034144 | 62 | 299 | 0.0 | 2.0 | 0.00 | 0.00 | 0.00 | 80 | 1017.5 |
| 20260906033123 | 62 | 299 | 0.0 | 2.0 | 0.00 | 0.00 | 0.00 | 79 | 1017.3 |
| 20260906032122 | 62 | 313 | 1.0 | 3.0 | 0.00 | 0.00 | 0.00 | 78 | 1017.4 |
| 20260906031123 | 63 | 204 | 0.0 | 2.0 | 0.00 | 0.00 | 0.00 | 76 | 1017.4 |
| 20260906030123 | 63 | 251 | 1.0 | 5.0 | 0.00 | 0.00 | 0.00 | 74 | 1017.3 |
| 20260906025122 | 64 | 224 | 1.0 | 5.0 | 0.00 | 0.00 | 0.00 | 72 | 1017.6 |
| 20260906024123 | 64 | 225 | 1.0 | 5.0 | 0.00 | 0.00 | 0.00 | 71 | 1017.4 |
| 20260906023123 | 65 | 314 | 0.0 | 3.0 | 0.00 | 0.00 | 0.00 | 72 | 1017.4 |
| 20260906022123 | 65 | 309 | 1.0 | 5.0 | 0.00 | 0.00 | 0.00 | 71 | 1017.4 |
| 20260906021122 | 66 | 347 | 3.0 | 8.0 | 0.00 | 0.00 | 0.00 | 69 | 1017.4 |
| 20260906020123 | 66 | 335 | 2.0 | 8.0 | 0.00 | 0.00 | 0.00 | 66 | 1017.2 |
| 20260906015122 | 67 | 300 | 2.0 | 6.0 | 0.00 | 0.00 | 0.00 | 64 | 1017.1 |
| 20260906014144 | 67 | 341 | 3.0 | 13.0 | 0.00 | 0.00 | 0.00 | 65 | 1017.1 |
| 20260906013123 | 67 | 310 | 3.0 | 6.0 | 0.00 | 0.00 | 0.00 | 63 | 1016.9 |
| 20260906012144 | 69 | 301 | 1.0 | 6.0 | 0.00 | 0.00 | 0.00 | 57 | 1016.7 |
| 20260906011123 | 69 | 218 | 3.0 | 11.0 | 0.00 | 0.00 | 0.00 | 53 | 1016.7 |
| 20260906010122 | 70 | 307 | 5.0 | 16.0 | 0.00 | 0.00 | 0.00 | 53 | 1016.6 |
| 20260906005123 | 70 | 305 | 4.0 | 16.0 | 0.00 | 0.00 | 0.00 | 54 | 1016.6 |
| 20260906004123 | 70 | 311 | 4.0 | 14.0 | 0.00 | 0.00 | 0.00 | 53 | 1016.6 |
| 20260906003123 | 70 | 318 | 4.0 | 13.0 | 0.00 | 0.00 | 0.00 | 54 | 1016.6 |
| 20260906002144 | 70 | 333 | 3.0 | 13.0 | 0.00 | 0.00 | 0.00 | 57 | 1016.6 |
| 20260906001122 | 70 | 310 | 5.0 | 19.0 | 0.00 | 0.00 | 0.00 | 56 | 1016.6 |
| 20260906000123 | 70 | 304 | 7.0 | 18.0 | 0.00 | 0.00 | 0.00 | 52 | 1016.6 |
| 20260905235144 | 71 | 323 | 5.0 | 16.0 | 0.00 | 0.00 | 0.00 | 55 | 1016.7 |
| 20260905234123 | 72 | 339 | 5.0 | 16.0 | 0.00 | 0.00 | 0.00 | 55 | 1016.7 |
| 20260905233123 | 72 | 64 | 2.0 | 11.0 | 0.00 | 0.00 | 0.00 | 53 | 1016.7 |
| 20260905232143 | 72 | 343 | 2.0 | 10.0 | 0.00 | 0.00 | 0.00 | 57 | 1016.7 |
| 20260905231143 | 71 | 197 | 4.0 | 13.0 | 0.00 | 0.00 | 0.00 | 53 | 1016.8 |
| 20260905230122 | 73 | 335 | 1.0 | 8.0 | 0.00 | 0.00 | 0.00 | 55 | 1016.9 |